Hourly Data Report for March 31, 2019

MAYO A
YUKON TERRITORY
Current Station Operator: NAVCAN

63°36'59.000" N
135°52'06.000" W
503.80 m
2100701
71965
YMA

Download Data

Hourly Data (March 2019)
Hourly Data Report for March 31, 2019
TIME
LST
Temp Definition
°C
Dew Point Definition
°C
Rel Hum Definition
%
Precip. Amount Definition
mm

Wind Dir Definition
10's deg

Wind Spd Definition
km/h
Visibility Definition
km
Stn Press Definition
kPa
Hmdx Definition


Wind Chill Definition


Weather Definition


00:00 -2.7 -7.0 72   36 2 32.2 97.23   -3 LegendNANA
01:00 -2.4 -7.0 71   29 9 32.2 97.24   -6 Clear
02:00 -2.7 -7.2 71   36 2 32.2 97.29   -3 LegendNANA
03:00 -3.6 -7.0 77   30 3 32.2 97.31   -5 LegendNANA
04:00 -3.8 -6.1 84   36 2 32.2 97.31   -5 Clear
05:00 -4.6 -7.9 78   31 4 32.2 97.33   -6 LegendNANA
06:00 -4.8 -7.3 83   26 3 32.2 97.34   -6 LegendNANA
07:00 -4.8 -7.0 85   36 2 32.2 97.36   -6 Mostly Cloudy
08:00 -4.0 -6.4 83   5 3 32.2 97.36   -5 LegendNANA
09:00 -0.5 -6.3 65   23 3 32.2 97.38   -1 LegendNANA
10:00 1.5 -6.6 55   0 1 32.2 97.38     Mostly Cloudy
11:00 5.3 -5.5 46   23 8 32.2 97.36     LegendNANA
12:00 6.5 -5.0 43   22 8 32.2 97.31     LegendNANA
13:00 7.6 -4.7 41   22 7 32.2 97.25     Cloudy
14:00 9.1 -3.6 40   22 13 32.2 97.19     LegendNANA
15:00 10.0 -3.6 38   22 14 32.2 97.13     LegendNANA
16:00 10.8 -3.5 36   27 14 32.2 97.08     Mostly Cloudy
17:00 11.0 -3.6 36   23 13 32.2 97.03     LegendNANA
18:00 10.7 -3.8 36   24 9 32.2 97.00     LegendNANA
19:00 9.1 -3.5 41   22 6 32.2 96.99     Mainly Clear
20:00 7.0 -3.8 46   24 4 32.2 96.99     LegendNANA
21:00 2.0 -3.6 66   8 5 32.2 97.00     LegendNANA
22:00 4.9 -3.9 53   18 8 32.2 96.99     Clear
23:00 1.2 -4.8 64   33 3 32.2 96.99     LegendNANA

Notes on Data Quality.

Legend

  • E = Estimated
  • M = Missing
  • NA = Not Available*
  • [empty] = Indicates an unobserved value
Date modified: